This demonstration page uses our WeatherBlox Daily Observations layout. Learn more.

Left ArrowRight Arrow

39.51506, -84.39828

Hourly Observations for April 15, 2016

Temp ( °F °C ) Dew Point ( °F °C ) Humidity (%) Winds ( mph kmh ) Pressure ( in mb ) Visibility ( mi km ) Precip ( " mm )
12:15 am 00:15 Clear 52 11 37 2.7 57 57 undefined N/A 30.21 1023 10 16 N/A
12:35 am 00:35 Clear 52 11 38 3.2 59 59 undefined N/A 30.21 1023 10 16 N/A
12:55 am 00:55 Clear 51 10.5 38 3.1 60 60 undefined N/A 30.21 1023 10 16 N/A
1:15 am 01:15 Clear 49 9.6 37 2.5 62 62 undefined N/A 30.21 1023 10 16 N/A
1:35 am 01:35 Clear 49 9.6 37 2.8 63 63 undefined N/A 30.21 1023 10 16 N/A
1:55 am 01:55 Clear 49 9.6 37 2.8 63 63 undefined N/A 30.18 1022 10 16 N/A
2:15 am 02:15 Clear 49 9.6 38 3.1 64 64 undefined N/A 30.18 1022 10 16 N/A
2:35 am 02:35 Clear 49 9.6 38 3.5 66 66 undefined N/A 30.18 1022 10 16 N/A
2:55 am 02:55 Clear 47 8.2 36 2.1 66 66 undefined N/A 30.18 1022 10 16 N/A
3:15 am 03:15 Clear 47 8.2 36 2.1 66 66 undefined N/A 30.18 1022 10 16 N/A
3:35 am 03:35 Clear 45 7.2 35 1.4 67 67 undefined N/A 30.18 1022 10 16 N/A
3:55 am 03:55 Clear 44 6.4 34 0.9 68 68 undefined N/A 30.18 1022 10 16 N/A
4:15 am 04:15 Clear 43 6.3 34 1 69 69 undefined N/A 30.18 1022 10 16 N/A
4:35 am 04:35 Clear 42 5.6 33 0.6 71 71 undefined N/A 30.18 1022 10 16 N/A
4:55 am 04:55 Clear 42 5.8 33 0.7 70 70 undefined N/A 30.18 1022 10 16 N/A
5:15 am 05:15 Clear 42 5.5 33 0.7 72 72 undefined N/A 30.18 1022 10 16 N/A
5:35 am 05:35 Clear 42 5.5 33 0.7 72 72 undefined N/A 30.18 1022 10 16 N/A
5:55 am 05:55 Clear 40 4.7 33 0.8 76 76 undefined N/A 30.21 1023 10 16 N/A
6:15 am 06:15 Clear 42 5.5 33 0.7 72 72 undefined N/A 30.21 1023 10 16 N/A
6:35 am 06:35 Clear 40 4.7 33 0.7 76 76 undefined N/A 30.24 1024 10 16 N/A
6:55 am 06:55 Clear 40 4.7 32 0.1 72 72 N N/A 30.24 1024 10 16 N/A
7:15 am 07:15 Sunny 41 4.8 33 0.3 73 73 undefined N/A 30.24 1024 10 16 N/A
7:35 am 07:35 Sunny 42 5.4 33 0.5 71 71 undefined N/A 30.24 1024 10 16 N/A
7:55 am 07:55 Sunny 42 5.7 35 1.4 74 74 undefined N/A 30.27 1025 10 16 N/A
8:15 am 08:15 Sunny 47 8.2 37 2.6 68 68 undefined N/A 30.24 1024 10 16 N/A
8:35 am 08:35 Sunny 49 9.6 36 2.2 60 60 undefined N/A 30.24 1024 10 16 N/A
8:55 am 08:55 Sunny 49 9.6 35 1.4 57 57 undefined N/A 30.24 1024 10 16 N/A
9:15 am 09:15 Sunny 55 12.5 37 2.6 51 51 NNE 6 9 30.24 1024 10 16 N/A
9:35 am 09:35 Sunny 55 12.5 36 2.1 49 49 NNE 6 9 30.24 1024 10 16 N/A
9:55 am 09:55 Sunny 56 13.3 36 2.4 48 48 NNE 5 7 30.24 1024 10 16 N/A
10:15 am 10:15 Sunny 57 13.8 37 2.5 47 47 undefined N/A 30.24 1024 10 16 N/A
10:35 am 10:35 Sunny with Heavy Rain 59 15.2 38 3.2 45 45 undefined N/A 30.24 1024 10 16 N/A
10:55 am 10:55 Sunny 60 15.6 37 2.9 43 43 undefined N/A 30.24 1024 10 16 N/A
11:15 am 11:15 Sunny 62 16.6 37 2.7 40 40 undefined N/A 30.24 1024 10 16 N/A
11:35 am 11:35 Sunny 64 17.9 38 3.1 37 37 undefined N/A 30.21 1023 10 16 N/A
11:55 am 11:55 Sunny 67 19.5 38 3.2 34 34 undefined N/A 30.21 1023 10 16 N/A
12:15 pm 12:15 Sunny 69 20.8 38 3.6 32 32 undefined N/A 30.21 1023 10 16 N/A
12:35 pm 12:35 Sunny 69 20.8 39 3.9 33 33 NNE 6 9 30.21 1023 10 16 N/A
12:55 pm 12:55 Sunny 69 20.8 38 3.6 32 32 undefined N/A 30.21 1023 10 16 N/A
1:15 pm 13:15 Sunny 70 21.2 38 3.3 31 31 NNE 6 9 30.21 1023 10 16 N/A
1:35 pm 13:35 Sunny 74 23.5 38 3.6 27 27 NNE 8 13 30.18 1022 10 16 N/A
1:55 pm 13:55 Sunny 74 23.6 32 undefined 21 21 undefined N/A 30.18 1022 10 16 N/A
2:15 pm 14:15 Sunny 74 23.6 32 -0.1 21 21 undefined N/A 30.18 1022 10 16 N/A
2:35 pm 14:35 Sunny 74 23.6 31 -0.4 20 20 undefined N/A 30.18 1022 10 16 N/A
2:55 pm 14:55 Sunny 74 23.6 33 0.4 22 22 undefined N/A 30.18 1022 10 16 N/A
3:15 pm 15:15 Sunny 74 23.6 32 -0.1 21 21 NNE 6 9 30.18 1022 7 11 N/A
3:35 pm 15:35 Sunny 74 23.6 31 -0.3 21 21 undefined N/A 30.18 1022 10 16 N/A
3:55 pm 15:55 Sunny 75 24.1 32 0.2 21 21 NNE 3 6 30.18 1022 10 16 N/A
4:15 pm 16:15 Sunny 76 24.5 33 0.7 21 21 undefined N/A 30.18 1022 10 16 N/A
4:35 pm 16:35 Sunny 75 24 33 0.7 22 22 undefined N/A 30.15 1021 10 16 N/A
4:55 pm 16:55 Sunny 77 24.9 36 2 22 22 SSE 6 9 30.15 1021 10 16 N/A
5:15 pm 17:15 Sunny 76 24.7 35 1.9 23 23 SSE 8 13 30.15 1021 10 16 N/A
5:35 pm 17:35 Sunny 77 25.1 36 2.1 22 22 SSE 6 9 30.15 1021 10 16 N/A
5:55 pm 17:55 Sunny 77 25.1 37 2.5 23 23 ESE 6 9 30.18 1022 10 16 N/A
6:15 pm 18:15 Sunny 76 24.7 35 1.9 23 23 NE 5 7 30.18 1022 10 16 N/A
6:35 pm 18:35 Sunny 74 23.6 35 1.8 24 24 NNE 3 6 30.15 1021 10 16 N/A
6:55 pm 18:55 Sunny 74 23.6 39 3.7 27 27 NNE 6 9 30.15 1021 10 16 N/A
7:15 pm 19:15 Sunny 74 23.6 37 2.8 26 26 N 7 11 30.15 1021 10 16 N/A
7:35 pm 19:35 Sunny 74 23.6 42 5.5 31 31 N 7 11 30.15 1021 10 16 N/A
7:55 pm 19:55 Sunny 71 21.4 40 4.6 33 33 NNE 5 7 30.18 1022 10 16 N/A
8:15 pm 20:15 Sunny 71 21.4 38 3.4 31 31 NNE 3 6 30.18 1022 10 16 N/A
8:35 pm 20:35 Clear 65 18.1 46 7.7 51 51 undefined N/A 30.18 1022 10 16 N/A
8:55 pm 20:55 Clear 60 15.6 47 8.3 62 62 undefined N/A 30.21 1023 10 16 N/A
9:15 pm 21:15 Clear 60 15.3 48 8.9 66 66 undefined N/A 30.21 1023 7 11 N/A
9:35 pm 21:35 Clear 58 14.3 46 8 66 66 undefined N/A 30.21 1023 10 16 N/A
9:55 pm 21:55 Clear 57 13.8 48 8.9 73 73 undefined N/A 30.24 1024 10 16 N/A
10:15 pm 22:15 Clear 57 13.8 47 8.2 69 69 undefined N/A 30.24 1024 10 16 N/A
10:35 pm 22:35 Clear 55 12.5 46 7.5 72 72 undefined N/A 30.24 1024 10 16 N/A
10:55 pm 22:55 Clear 55 12.5 47 8.3 76 76 undefined N/A 30.24 1024 10 16 N/A
11:15 pm 23:15 Clear 55 12.5 47 8.6 77 77 undefined N/A 30.24 1024 10 16 N/A
11:35 pm 23:35 Clear 55 12.5 47 8.4 76 76 undefined N/A 30.24 1024 10 16 N/A
11:55 pm 23:55 Clear 55 12.5 48 8.7 78 78 undefined N/A 30.24 1024 10 16 N/A

Powered by AerisWeather